Location: Gloden
(48.4833°N, 15.3167°E)
Time: 09:15:57
(UTC+00:00)

Cosmos 2082 Rocket - Pass Details

Date: 15 December 2019
Orbit: 834 x 852 km, 71.0° (Epoch: 24 January)

Event Time Altitude Azimuth Distance (km) Brightness Sun altitude
Exits shadow 04:39:27 - 346° (NNW) 2,662 4.5 -19.5°
Reaches altitude 10° 04:40:06 10° 351° (N) 2,467 4.4 -19.4°
Maximum altitude 04:44:35 23° 43° (NE) 1,701 4.1 -18.6°
Drops below altitude 10° 04:49:01 10° 96° (E) 2,450 5.9 -17.9°
Sets 04:51:57 0° 110° (ESE) 3,379 7.1 -17.5°
